#timestamp,LO_Frequency,Hit,StdDev 
1633564815.4,286047002.1,N
1633564835.2,286047003.2,N
1633564855.1,286047003.2,N
1633564856.0,286047003.2,N
1633564875.8,286047007.2,N
1633564895.6,286047006.4,N
1633564915.5,286047006.4,N
1633564935.3,286047005.0,N
1633564955.1,286047005.5,N
1633564975.9,286047004.2,N
1633564995.7,286047000.2,N
1633565015.6,286047002.8,N
1633565035.4,286047003.8,N
1633565055.2,286047005.7,N
1633565075.1,286047002.8,N
1633565076.0,286047002.8,N
1633565095.8,286047004.2,N
1633565115.6,286047002.3,N
1633565135.5,286046998.5,N
1633565155.3,286046998.2,N
1633565175.2,286047000.0,N
1633565195.9,286047000.2,N
1633565215.7,286047001.1,N
1633565235.6,286047000.6,N
1633565255.4,286047004.2,N
1633565275.2,286047004.0,N
1633565295.1,286047003.7,N
1633565296.0,286047003.7,N
1633565315.8,286047003.1,N
1633565335.7,286047002.3,N
1633565355.5,286047002.5,N
1633565375.3,286047001.7,N
1633565395.2,286047000.8,N
1633565415.0,286046998.8,N
1633565415.9,286046998.8,N
1633565435.8,286047002.6,N
1633565455.6,286047002.2,N
1633565475.4,286047001.3,N
1633565495.3,286047005.9,N
1633565515.1,286047004.9,N
1633565535.8,286047009.6,Y
1633565555.7,286047007.9,P
1633565575.5,286047010.7,P
1633565595.4,286047008.5,N
1633565615.2,286047010.0,Y
1633565635.0,286047005.9,P
1633565635.9,286047005.9,P
1633565655.8,286047004.7,P
1633565675.6,286047009.0,Y
1633565695.5,286047003.5,P
1633565715.3,286047007.4,P
1633565735.1,286047008.5,P
1633565755.9,286047010.1,Y
1633565775.7,286047004.6,P
1633565795.5,286047003.3,P
1633565815.4,286047011.9,P
1633565835.2,286047002.9,N
1633565855.1,286047003.9,N
1633565856.0,286047003.9,N
1633565875.8,286047002.5,N
1633565895.6,286047000.1,N
1633565915.5,286046999.3,N
1633565935.3,286046997.7,N
1633565955.1,286046994.3,N
1633565975.9,286046992.7,N
1633565995.7,286046988.5,N
1633566015.6,286046987.5,N
1633566035.4,286046990.8,N
1633566055.2,286046993.2,N
1633566075.1,286046993.6,N
1633566076.0,286046993.6,N
1633566095.8,286046996.5,N
1633566115.6,286047000.3,N
1633566135.5,286047005.0,N
1633566155.3,286047007.9,N
1633566175.1,286047010.3,N
1633566195.9,286047013.5,N
1633566215.7,286047017.0,N
1633566235.6,286047022.0,N
1633566255.4,286047025.0,N
1633566275.2,286047031.3,Y
1633566295.1,286047032.3,P
1633566296.0,286047032.3,N
1633566315.8,286047033.4,N
1633566335.7,286047033.7,N
1633566355.5,286047035.3,N
1633566375.3,286047033.2,N
1633566395.2,286047027.3,N
1633566415.0,286047027.9,N
1633566415.9,286047027.9,N
1633566435.7,286047022.3,N
1633566455.6,286047017.5,N
1633566475.4,286047014.4,N
1633566495.3,286047007.8,N
1633566515.1,286047005.3,N
1633566516.0,286047005.3,N
1633566535.8,286047001.4,N
1633566555.7,286046998.3,N
1633566575.5,286046998.5,N
1633566595.3,286047001.1,N
1633566615.2,286046997.3,N
1633566635.0,286046997.8,N
1633566635.9,286046997.8,N
1633566655.8,286046997.7,N
1633566675.6,286046998.8,N
1633566695.5,286046997.1,N
1633566715.3,286046998.0,N
1633566735.1,286046999.2,N
1633566755.9,286047001.0,N
1633566775.7,286047004.2,N
1633566795.5,286047003.5,N
1633566815.4,286047005.7,N
1633566835.2,286047007.5,N
1633566855.1,286047008.8,N
1633566856.0,286047008.8,N
1633566875.8,286047007.0,N
1633566895.6,286047005.8,N
1633566915.5,286046999.9,N
1633566935.3,286046998.9,N
1633566955.2,286046997.6,N
1633566975.9,286046991.9,N
1633566995.7,286046992.6,N
1633567015.6,286046985.4,N
1633567035.4,286046983.3,Y
1633567055.2,286046981.6,P
1633567075.1,286046978.1,N
1633567076.0,286046978.1,N
1633567095.8,286046978.2,N
1633567115.7,286046978.3,N
1633567135.5,286046980.3,N
1633567155.3,286046980.0,N
1633567175.2,286046981.9,N
1633567195.0,286046981.1,N
1633567195.9,286046981.1,N
1633567215.8,286046983.4,N
1633567235.6,286046982.6,N
1633567255.4,286046983.6,N
1633567275.3,286046980.6,Y
1633567295.1,286046999.3,P
1633567315.8,286046996.2,N
1633567335.7,286046993.3,N
1633567355.5,286046993.3,N
1633567375.4,286046991.7,N
1633567395.2,286046995.4,N
1633567415.0,286046999.2,N
1633567415.9,286046999.2,N
1633567435.8,286046996.5,N
1633567455.6,286046999.1,N
1633567475.4,286047000.6,N
1633567495.3,286046996.7,N
1633567515.1,286046995.5,N
1633567535.9,286046994.3,N
1633567555.7,286046990.2,N
1633567575.5,286046989.2,N
1633567595.4,286046984.3,Y
1633567615.2,286046985.9,P
1633567635.1,286046986.0,P
1633567636.0,286046986.0,P
1633567655.8,286046989.6,N
1633567675.6,286046989.3,Y
1633567695.5,286047003.8,P
1633567715.3,286047005.4,N
1633567735.1,286047008.7,N
1633567755.9,286047010.3,N
1633567775.7,286047011.5,N
1633567795.6,286047016.6,N
1633567815.4,286047020.9,N
1633567835.2,286047024.0,N
1633567855.1,286047026.8,N
1633567856.0,286047026.8,N
1633567875.8,286047026.9,N
1633567895.6,286047031.0,N
1633567915.5,286047036.9,Y
1633567935.3,286047028.7,P
1633567955.2,286047037.5,P
1633567975.0,286047042.3,P
1633567975.9,286047042.3,Y
1633567995.8,286047012.1,P
1633568015.6,286047017.1,N
1633568035.4,286047018.9,N
1633568055.3,286047021.6,Y
1633568075.1,286047002.8,P
1633568095.8,286047000.6,N
1633568115.7,286046997.1,N
1633568135.5,286046993.6,N
1633568155.4,286046988.7,N
1633568175.2,286046988.9,N
1633568195.0,286046989.9,N
1633568195.9,286046989.9,N
1633568215.8,286046989.4,N
1633568235.6,286046990.9,N
1633568255.4,286046991.7,N
1633568275.3,286046993.5,N
1633568295.1,286046995.7,N
1633568315.9,286046995.1,N
1633568335.7,286046996.3,N
1633568355.5,286046994.7,N
1633568375.4,286046992.9,N
1633568395.2,286046989.6,N
